EW4363 Weather Reports


Display with metric or nautical units.
time (UTC)temp
F
wind
direction
speed
MPH
gust
MPH
rain 1hr
in
rain 24hr
in
rain mn
in
humidity
%
barometer
mb
20260503200303 62 326 0.0 0.0 0.00 0.02 0.02 81 1013.8
20260503195804 62 326 0.0 0.0 0.00 0.02 0.02 81 1013.8
20260503195304 61 326 0.0 0.0 0.00 0.02 0.02 81 1013.7
20260503194804 61 326 0.0 0.0 0.00 0.02 0.02 82 1013.7
20260503194303 61 326 0.0 1.0 0.00 0.02 0.02 81 1013.7
20260503193804 61 326 0.0 1.0 0.00 0.02 0.02 81 1013.6
20260503192803 62 328 0.0 2.0 0.00 0.02 0.02 81 1013.5
20260503191803 62 326 1.0 3.0 0.00 0.02 0.02 80 1013.4
20260503191303 62 330 0.0 2.0 0.00 0.02 0.02 80 1013.4
20260503190804 62 315 1.0 3.0 0.00 0.02 0.02 80 1013.3
20260503190304 62 324 1.0 3.0 0.00 0.02 0.02 79 1013.3
20260503185803 62 325 1.0 3.0 0.00 0.02 0.02 79 1013.2
20260503184804 62 332 0.0 3.0 0.00 0.02 0.02 78 1013.2
20260503184304 62 325 1.0 3.0 0.00 0.02 0.02 78 1013.2
20260503183803 63 323 1.0 3.0 0.00 0.02 0.02 77 1013.2
20260503182804 63 326 1.0 2.0 0.00 0.02 0.02 75 1013.2
20260503181304 63 322 0.0 2.0 0.00 0.02 0.02 73 1013.3
20260503180804 63 327 1.0 3.0 0.00 0.02 0.02 73 1013.3
20260503180304 63 324 1.0 3.0 0.00 0.02 0.02 72 1013.3
20260503175804 63 327 0.0 3.0 0.00 0.02 0.02 72 1013.3
20260503175304 63 322 1.0 3.0 0.00 0.02 0.02 72 1013.3
20260503174803 63 323 0.0 3.0 0.00 0.02 0.02 72 1013.3
20260503174304 63 328 0.0 3.0 0.00 0.02 0.02 71 1013.3
20260503173805 63 328 1.0 5.0 0.00 0.02 0.02 70 1013.2
20260503173303 64 322 2.0 5.0 0.00 0.02 0.02 69 1013.1
20260503172804 64 330 1.0 3.0 0.00 0.02 0.02 69 1013.0
20260503172305 64 328 0.0 2.0 0.00 0.02 0.02 68 1012.9
20260503171803 64 291 0.0 2.0 0.00 0.02 0.02 68 1012.9
20260503150804 67 322 2.0 3.0 0.00 0.02 0.02 66 1012.7
20260503150304 67 325 2.0 3.0 0.00 0.02 0.02 65 1012.7
20260503140304 68 314 2.0 3.0 0.00 0.02 0.02 65 1013.6
20260503131304 68 323 3.0 6.0 0.00 0.02 0.02 62 1014.6
20260503130805 68 322 1.0 6.0 0.00 0.02 0.02 62 1014.7
20260503130304 68 323 1.0 3.0 0.00 0.02 0.02 63 1014.7
20260503110804 65 281 0.0 2.0 0.02 0.02 0.02 80 1015.3
20260503110304 64 323 0.0 1.0 0.02 0.02 0.02 80 1015.5
20260503090305 67 324 2.0 5.0 0.00 0.00 0.00 66 1015.6
20260503081304 66 326 1.0 3.0 0.00 0.00 0.00 69 1015.6
20260503080804 65 281 2.0 3.0 0.00 0.00 0.00 69 1015.6
20260503080304 65 282 2.0 5.0 0.00 0.00 0.00 70 1015.6
20260503072305 64 326 1.0 3.0 0.00 0.00 0.00 76 1015.6
20260503071805 64 328 2.0 3.0 0.00 0.00 0.00 77 1015.7
20260503071304 64 327 1.0 3.0 0.00 0.00 0.00 77 1015.7
20260503070804 64 322 1.0 3.0 0.00 0.00 0.00 78 1015.6
20260503070305 64 323 2.0 3.0 0.00 0.00 0.00 78 1015.5
20260503060304 62 283 0.0 1.0 0.00 0.00 0.00 80 1015.7
20260503054804 62 283 0.0 0.0 0.00 0.00 0.00 80 1015.6
20260503054305 62 283 0.0 0.0 0.00 0.00 0.00 80 1015.7
20260503053804 62 283 0.0 0.0 0.00 0.00 0.00 79 1015.7
20260503053305 62 283 0.0 0.0 0.00 0.00 0.00 79 1015.7
20260503052305 62 283 0.0 1.0 0.00 0.00 0.00 79 1015.6
20260503051805 62 283 0.0 1.0 0.00 0.00 0.00 79 1015.6
20260503051304 62 283 0.0 1.0 0.00 0.00 0.00 79 1015.5
20260503050805 62 283 1.0 2.0 0.00 0.00 0.00 79 1015.5
20260503050306 62 283 0.0 1.0 0.00 0.00 0.00 79 1015.6
20260503045805 62 289 1.0 2.0 0.00 0.00 0.00 78 1015.6
20260503045305 62 279 0.0 2.0 0.00 0.00 0.00 79 1015.5
20260503044805 62 279 0.0 0.0 0.00 0.00 0.00 79 1015.5
20260503044304 62 279 0.0 1.0 0.00 0.00 0.00 79 1015.5
20260503043804 62 279 0.0 0.0 0.00 0.00 0.00 80 1015.5
20260503042804 62 279 0.0 0.0 0.00 0.00 0.00 80 1015.5
20260503042305 62 279 0.0 0.0 0.00 0.00 0.00 80 1015.6
20260503041805 62 280 0.0 0.0 0.00 0.00 0.00 80 1015.6
20260503040305 62 280 0.0 0.0 0.00 0.00 0.00 80 1015.8
20260503035804 62 280 0.0 0.0 0.00 0.00 0.00 80 1015.8
20260503035305 62 279 0.0 1.0 0.00 0.00 0.00 80 1015.8
20260503034804 62 279 0.0 2.0 0.00 0.00 0.00 80 1015.9
20260503034304 62 280 0.0 1.0 0.00 0.00 0.00 81 1015.9
20260503033804 62 280 0.0 1.0 0.00 0.00 0.00 81 1016.0
20260503033304 62 280 0.0 2.0 0.00 0.00 0.00 81 1016.1
20260503032804 62 280 0.0 1.0 0.00 0.00 0.00 81 1016.1
20260503031804 62 281 0.0 1.0 0.00 0.00 0.00 81 1016.0
20260503030304 62 326 0.0 1.0 0.00 0.00 0.00 81 1016.1
20260503025805 62 326 0.0 0.0 0.00 0.00 0.00 81 1016.1
20260503025305 62 326 0.0 0.0 0.00 0.00 0.00 81 1016.2
20260503024805 62 326 0.0 0.0 0.00 0.00 0.00 81 1016.4
20260503024304 62 326 0.0 0.0 0.00 0.00 0.00 81 1016.4
20260503023304 62 326 0.0 0.0 0.00 0.00 0.00 81 1016.4
20260503021804 62 325 0.0 0.0 0.00 0.00 0.00 81 1016.3
20260503021304 62 325 0.0 0.0 0.00 0.00 0.00 81 1016.4
20260503020305 62 325 0.0 0.0 0.00 0.00 0.00 81 1016.5
20260503015805 62 325 0.0 0.0 0.00 0.00 0.00 81 1016.5
20260503014805 62 325 0.0 1.0 0.00 0.00 0.00 80 1016.6
20260503014304 62 324 0.0 2.0 0.00 0.00 0.00 80 1016.6
20260503013804 63 324 0.0 1.0 0.00 0.00 0.00 79 1016.6
20260503013304 63 324 0.0 1.0 0.00 0.00 0.00 79 1016.6
20260503012805 63 329 0.0 1.0 0.00 0.00 0.00 79 1016.7
20260503011804 63 285 0.0 1.0 0.00 0.00 0.00 79 1016.7
20260503011307 63 0 0.0 1.0 0.00 0.00 0.00 79 1016.7
20260503010804 63 290 0.0 3.0 0.00 0.00 0.00 79 1016.7
20260503010304 63 330 1.0 3.0 0.00 0.00 0.00 79 1016.7
20260503005804 63 285 0.0 1.0 0.00 0.00 0.00 78 1016.7
20260503005304 63 283 0.0 1.0 0.00 0.00 0.00 79 1016.9
20260503004804 63 283 1.0 2.0 0.00 0.00 0.00 78 1017.1
20260503004304 63 275 0.0 1.0 0.00 0.00 0.00 78 1017.2
20260503003304 63 288 0.0 0.0 0.00 0.00 0.00 78 1017.4
20260503002803 63 287 0.0 1.0 0.00 0.00 0.00 78 1017.5
20260503002305 63 281 0.0 1.0 0.00 0.00 0.00 78 1017.5
20260503001805 63 278 0.0 1.0 0.00 0.00 0.00 78 1017.7
20260503001304 63 278 0.0 1.0 0.00 0.00 0.00 78 1017.7
20260503000804 63 278 0.0 1.0 0.00 0.00 0.00 78 1017.8
20260503000305 63 278 1.0 3.0 0.00 0.00 0.00 78 1017.8
20260502235804 63 283 0.0 1.0 0.00 0.00 0.00 78 1017.8
20260502235305 63 283 0.0 2.0 0.00 0.00 0.00 78 1017.9
20260502234804 63 288 0.0 3.0 0.00 0.00 0.00 78 1017.9
20260502234304 63 332 1.0 2.0 0.00 0.00 0.00 78 1017.9
20260502233804 63 329 0.0 1.0 0.00 0.00 0.00 78 1017.9
20260502233304 63 335 0.0 1.0 0.00 0.00 0.00 78 1017.9
20260502232805 63 301 0.0 1.0 0.00 0.00 0.00 78 1017.9
20260502232305 63 326 0.0 2.0 0.00 0.00 0.00 78 1018.0
20260502231804 63 304 0.0 1.0 0.00 0.00 0.00 78 1018.1
20260502230804 63 280 0.0 1.0 0.00 0.00 0.00 78 1018.0
20260502230304 63 250 0.0 1.0 0.00 0.00 0.00 78 1018.0
20260502225804 63 275 1.0 3.0 0.00 0.00 0.00 78 1018.0
20260502225304 63 331 0.0 2.0 0.00 0.00 0.00 78 1018.0
20260502224804 63 303 0.0 2.0 0.00 0.00 0.00 78 1018.0
20260502224304 63 281 0.0 1.0 0.00 0.00 0.00 78 1018.0
20260502223804 63 281 0.0 1.0 0.00 0.00 0.00 77 1018.0
20260502223304 63 284 0.0 3.0 0.00 0.00 0.00 77 1018.1
20260502222804 64 288 0.0 1.0 0.00 0.00 0.00 77 1018.1
20260502222305 63 276 0.0 1.0 0.00 0.00 0.00 77 1018.1
20260502221803 63 260 0.0 3.0 0.00 0.00 0.00 78 1018.2
20260502220811 63 281 2.0 3.0 0.00 0.00 0.00 77 1018.2
20260502220304 64 280 1.0 3.0 0.00 0.00 0.00 77 1018.2
20260502215804 64 284 0.0 1.0 0.00 0.00 0.00 77 1018.4
20260502215305 64 284 1.0 2.0 0.00 0.00 0.00 77 1018.4
20260502214804 64 286 0.0 1.0 0.00 0.00 0.00 78 1018.4
20260502214304 63 286 0.0 3.0 0.00 0.00 0.00 78 1018.4
20260502213804 63 277 0.0 2.0 0.00 0.00 0.00 78 1018.3
20260502213304 64 333 0.0 1.0 0.00 0.00 0.00 78 1018.4
20260502212804 64 313 0.0 2.0 0.00 0.00 0.00 77 1018.5
20260502212305 64 283 0.0 0.0 0.00 0.00 0.00 77 1018.6
20260502211804 64 283 0.0 1.0 0.00 0.00 0.00 77 1018.6
20260502211304 64 284 1.0 3.0 0.00 0.00 0.00 77 1018.6
20260502210804 64 280 0.0 1.0 0.00 0.00 0.00 77 1018.6
20260502210304 63 280 0.0 2.0 0.00 0.00 0.00 77 1018.5
20260502205804 64 280 0.0 3.0 0.00 0.00 0.00 77 1018.5
20260502205305 64 290 0.0 1.0 0.00 0.00 0.00 77 1018.6
20260502204804 64 286 0.0 2.0 0.00 0.00 0.00 77 1018.6
20260502204304 64 302 0.0 1.0 0.00 0.00 0.00 77 1018.6
20260502203804 64 251 0.0 1.0 0.00 0.00 0.00 77 1018.6
20260502203304 64 322 0.0 1.0 0.00 0.00 0.00 77 1018.7
20260502202804 64 323 0.0 2.0 0.00 0.00 0.00 77 1018.7
20260502202305 64 323 0.0 2.0 0.00 0.00 0.00 77 1018.5
20260502201804 64 269 0.0 3.0 0.00 0.00 0.00 76 1018.4
20260502201304 64 332 0.0 1.0 0.00 0.00 0.00 77 1018.6
20260502200804 64 296 0.0 1.0 0.00 0.00 0.00 77 1018.6